TimeEST,TemperatureF,Dew PointF,Humidity,Sea Level PressureIn,VisibilityMPH,Wind Direction,Wind SpeedMPH,Gust SpeedMPH,PrecipitationIn,Events,Conditions,WindDirDegrees,DateUTC
12:18 AM,35.6,33.8,93,29.88,5.0,SSW,6.9,-,N/A,,Overcast,200,2013-02-23 05:18:00
12:38 AM,35.6,32.0,87,29.88,5.0,SSW,6.9,-,N/A,,Overcast,200,2013-02-23 05:38:00
12:58 AM,35.6,32.0,87,29.88,7.0,SSW,6.9,-,N/A,,Overcast,200,2013-02-23 05:58:00
1:18 AM,35.6,32.0,87,29.88,7.0,SSW,10.4,-,N/A,,Overcast,200,2013-02-23 06:18:00
1:38 AM,35.6,32.0,87,29.88,7.0,SSW,8.1,16.1,N/A,,Overcast,210,2013-02-23 06:38:00
1:58 AM,35.6,32.0,87,29.88,10.0,SSW,6.9,-,N/A,,Overcast,210,2013-02-23 06:58:00
2:18 AM,35.6,32.0,87,29.87,10.0,SSW,8.1,-,N/A,,Overcast,210,2013-02-23 07:18:00
2:38 AM,35.6,32.0,87,29.88,10.0,SW,5.8,-,N/A,,Overcast,220,2013-02-23 07:38:00
2:58 AM,35.6,30.2,81,29.87,10.0,SSW,6.9,-,N/A,,Overcast,200,2013-02-23 07:58:00
3:18 AM,33.8,30.2,87,29.87,10.0,SSW,6.9,-,N/A,,Overcast,200,2013-02-23 08:18:00
3:38 AM,33.8,30.2,87,29.87,10.0,South,6.9,-,N/A,,Overcast,190,2013-02-23 08:38:00
3:58 AM,33.8,30.2,87,29.87,10.0,SSW,6.9,-,N/A,,Overcast,200,2013-02-23 08:58:00
4:18 AM,33.8,30.2,87,29.86,7.0,SSW,6.9,-,N/A,,Overcast,200,2013-02-23 09:18:00
4:38 AM,33.8,30.2,87,29.86,10.0,SSW,4.6,-,N/A,,Overcast,200,2013-02-23 09:38:00
4:58 AM,33.8,30.2,87,29.86,10.0,SSW,4.6,-,N/A,,Overcast,200,2013-02-23 09:58:00
5:18 AM,33.8,30.2,87,29.86,10.0,SSW,5.8,-,N/A,,Overcast,200,2013-02-23 10:18:00
5:38 AM,33.8,30.2,87,29.86,10.0,SSW,8.1,-,N/A,,Overcast,200,2013-02-23 10:38:00
5:58 AM,33.8,28.4,81,29.86,10.0,SW,6.9,-,N/A,,Overcast,220,2013-02-23 10:58:00
6:18 AM,33.8,28.4,81,29.86,10.0,SW,8.1,-,N/A,,Overcast,230,2013-02-23 11:18:00
6:38 AM,33.8,24.8,70,29.86,10.0,SW,8.1,16.1,N/A,,Overcast,220,2013-02-23 11:38:00
6:58 AM,33.8,23.0,65,29.87,10.0,SW,10.4,23.0,N/A,,Overcast,230,2013-02-23 11:58:00
7:18 AM,32.0,23.0,69,29.87,10.0,SW,9.2,-,N/A,,Overcast,220,2013-02-23 12:18:00
7:39 AM,32.0,23.0,69,29.88,10.0,SW,8.1,-,N/A,,Overcast,230,2013-02-23 12:39:00
7:58 AM,32.0,23.0,69,29.89,10.0,SW,4.6,-,N/A,,Overcast,230,2013-02-23 12:58:00
8:18 AM,32.0,23.0,69,29.89,10.0,SW,6.9,-,N/A,,Overcast,230,2013-02-23 13:18:00
8:39 AM,32.0,21.2,64,29.89,10.0,WSW,6.9,-,N/A,,Overcast,240,2013-02-23 13:39:00
8:58 AM,32.0,21.2,64,29.88,10.0,SW,9.2,-,N/A,,Overcast,230,2013-02-23 13:58:00
9:19 AM,32.0,21.2,64,29.88,10.0,SW,6.9,-,N/A,,Overcast,220,2013-02-23 14:19:00
9:38 AM,32.0,21.2,64,29.88,10.0,SW,6.9,-,N/A,,Overcast,220,2013-02-23 14:38:00
9:58 AM,33.8,21.2,60,29.88,10.0,SW,9.2,-,N/A,,Overcast,230,2013-02-23 14:58:00
10:18 AM,33.8,23.0,65,29.88,10.0,WSW,8.1,-,N/A,,Overcast,250,2013-02-23 15:18:00
10:38 AM,33.8,23.0,65,29.88,10.0,SW,10.4,16.1,N/A,,Overcast,230,2013-02-23 15:38:00
10:59 AM,33.8,23.0,65,29.88,10.0,SW,5.8,16.1,N/A,,Overcast,220,2013-02-23 15:59:00
11:18 AM,33.8,23.0,65,29.87,10.0,SW,11.5,16.1,N/A,,Overcast,220,2013-02-23 16:18:00
11:38 AM,35.6,23.0,60,29.87,10.0,WSW,9.2,-,N/A,,Overcast,240,2013-02-23 16:38:00
11:58 AM,35.6,23.0,60,29.87,10.0,WSW,5.8,16.1,N/A,,Overcast,250,2013-02-23 16:58:00
12:18 PM,33.8,23.0,65,29.88,10.0,SW,8.1,16.1,N/A,,Overcast,230,2013-02-23 17:18:00
12:38 PM,35.6,23.0,60,29.87,10.0,WSW,5.8,-,N/A,,Overcast,250,2013-02-23 17:38:00
12:58 PM,33.8,23.0,65,29.86,10.0,SW,6.9,-,N/A,,Overcast,230,2013-02-23 17:58:00
1:19 PM,33.8,23.0,65,29.86,10.0,SSW,5.8,-,N/A,,Overcast,210,2013-02-23 18:19:00
1:38 PM,35.6,23.0,60,29.86,10.0,SW,4.6,-,N/A,,Overcast,220,2013-02-23 18:38:00
1:58 PM,35.6,23.0,60,29.86,10.0,WSW,6.9,-,N/A,,Overcast,240,2013-02-23 18:58:00
2:18 PM,35.6,23.0,60,29.85,10.0,West,9.2,-,N/A,,Overcast,260,2013-02-23 19:18:00
2:38 PM,35.6,21.2,56,29.85,10.0,WSW,6.9,-,N/A,,Overcast,240,2013-02-23 19:38:00
2:58 PM,37.4,21.2,52,29.85,10.0,SW,9.2,-,N/A,,Overcast,230,2013-02-23 19:58:00
3:18 PM,35.6,21.2,56,29.86,10.0,SW,6.9,-,N/A,,Overcast,220,2013-02-23 20:18:00
3:38 PM,35.6,21.2,56,29.86,10.0,WSW,4.6,-,N/A,,Overcast,250,2013-02-23 20:38:00
3:59 PM,35.6,21.2,56,29.86,10.0,West,8.1,-,N/A,,Overcast,280,2013-02-23 20:59:00
4:18 PM,33.8,21.2,60,29.86,10.0,WSW,4.6,-,N/A,,Overcast,250,2013-02-23 21:18:00
4:39 PM,33.8,21.2,60,29.86,10.0,SW,5.8,-,N/A,,Overcast,230,2013-02-23 21:39:00
4:58 PM,33.8,21.2,60,29.86,10.0,WSW,5.8,-,N/A,,Overcast,240,2013-02-23 21:58:00
5:18 PM,33.8,21.2,60,29.86,10.0,SSW,5.8,-,N/A,,Overcast,210,2013-02-23 22:18:00
5:38 PM,33.8,21.2,60,29.87,10.0,WSW,3.5,-,N/A,,Overcast,240,2013-02-23 22:38:00
5:58 PM,33.8,21.2,60,29.87,10.0,Calm,Calm,-,N/A,,Overcast,0,2013-02-23 22:58:00
6:18 PM,33.8,23.0,65,29.88,10.0,Calm,Calm,-,N/A,,Overcast,0,2013-02-23 23:18:00
6:38 PM,33.8,21.2,60,29.88,10.0,West,5.8,-,N/A,,Overcast,280,2013-02-23 23:38:00
6:58 PM,32.0,23.0,69,29.89,10.0,West,3.5,-,N/A,,Overcast,260,2013-02-23 23:58:00
7:19 PM,32.0,23.0,69,29.89,10.0,Calm,Calm,-,N/A,,Overcast,0,2013-02-24 00:19:00
7:38 PM,32.0,23.0,69,29.89,10.0,SW,3.5,-,N/A,,Overcast,230,2013-02-24 00:38:00
7:59 PM,32.0,23.0,69,29.89,10.0,Calm,Calm,-,N/A,,Overcast,0,2013-02-24 00:59:00
8:18 PM,32.0,21.2,64,29.89,10.0,West,3.5,-,N/A,,Overcast,280,2013-02-24 01:18:00
8:38 PM,32.0,23.0,69,29.89,10.0,West,3.5,-,N/A,,Overcast,280,2013-02-24 01:38:00
8:58 PM,32.0,23.0,69,29.89,10.0,West,4.6,-,N/A,,Overcast,280,2013-02-24 01:58:00
9:18 PM,32.0,23.0,69,29.89,10.0,WSW,4.6,-,N/A,,Overcast,250,2013-02-24 02:18:00
9:38 PM,30.2,23.0,75,29.89,10.0,West,4.6,-,N/A,,Overcast,270,2013-02-24 02:38:00
9:58 PM,30.2,21.2,69,29.89,10.0,West,4.6,-,N/A,,Overcast,260,2013-02-24 02:58:00
10:18 PM,30.2,21.2,69,29.89,10.0,Calm,Calm,-,N/A,,Overcast,0,2013-02-24 03:18:00
10:38 PM,30.2,21.2,69,29.89,10.0,West,3.5,-,N/A,,Overcast,270,2013-02-24 03:38:00
10:58 PM,30.2,21.2,69,29.89,10.0,West,6.9,-,N/A,,Overcast,270,2013-02-24 03:58:00
11:19 PM,30.2,21.2,69,29.88,10.0,West,4.6,-,N/A,,Overcast,260,2013-02-24 04:19:00
11:38 PM,28.4,21.2,74,29.88,10.0,West,5.8,-,N/A,,Overcast,260,2013-02-24 04:38:00
11:58 PM,28.4,21.2,74,29.87,10.0,West,4.6,-,N/A,,Overcast,260,2013-02-24 04:58:00